マクノート-ヒューズ彗星

130P/McNaught-Hughes (1998)

English version
Home page
Updated on March 26, 1999

---------------------------------------------------------------------

・ プロフィール

符号 130P/1997 H1
検出日 1997年4月16日, 4月29日
検出光度 20.6等, 20.3等
検出者 J. V. Scotti, J. Larsen (Kitt Peak), 中村彰正(久万高原)

・ 軌道要素

   The following improved orbital elements by Kenji Muraoka, are 
  from 91 observations 1991 Sept. 14 to 1999 Jan. 15, perturbations 
  by 9 Plantes, Moon and 5 minor planets were taken into account. 
   The mean residual is +/- 0.57 arc seconds.

      Epoch  =  1998 Mar.  8.0  TT       JDT = 2450880.5
          T  =  1998 Feb. 23.78371       +/- 0.00025 (m.e.) TT
       Peri. =  224.36816                +/- 0.00022
       Node  =   89.97248                +/- 0.00022   (2000.0)
       Incl. =    7.30336                +/- 0.00002
          q  =    2.1162919              +/- 0.0000004 AU
          e  =    0.4041126              +/- 0.0000001
          a  =    3.5514967              +/- 0.0000003 AU
          n  =    0.14726073             +/- 0.00000002
          P  =    6.693                  +/- 0.0000008  years

・ 星図

・ 1997年 4月 2日〜1998年 2月16日
・ 1998年 1月 7日〜1998年11月23日

・ 光度変化

        m1 = 11.5 + 5 logΔ + 15.0 log r

---------------------------------------------------------------------

軌道要素は村岡健治氏の計算によるものです。
星図は StellaNavigator Ver.2.0 for Windows (アストロアーツ 編著 / アスキー出版局刊) で作成したものです。
光度グラフはComet for Windowsで作成したものです。

---------------------------------------------------------------------

Copyright(C) Seiichi Yoshida (comet@aerith.net). All rights reserved.